Woodlawn Beach Middle School FL US WEATHERSTEM current weather conditions

sailwx.info

Wind from 304 at 0 knots gusting 5

Air temperature 18.7° C
Dewpoint 11.1° C

Last reported at 2020-Sep-30 06:00 UTC.
Time now 2020-Sep-30 06:31 UTC

Location: N 30°24' W 087°01'.
View on Google Maps.

See reports from other nearby stations

  
Tides and Currents Weather Stations Pressure Air Temp Water Temp Dewpoint Dewpoint Depression Visibility Wind Speed Wind Dir Waves Ship Positions
date/time (UTC)wind fromknots sea level pressurealtimeterstation pressurevisibilityair tempwater tempwave heightnotes
2020-Sep-30 06:00 304 0 gusting 5 18.7
2020-Sep-30 05:50 318 1 gusting 6 18.8
2020-Sep-30 05:40 302 1 gusting 4 18.9
2020-Sep-30 05:30 288 2 gusting 8 19.1
2020-Sep-30 05:20 286 6 gusting 6 19.2
2020-Sep-30 05:10 318 4 gusting 7 19.3
2020-Sep-30 05:00 302 3 gusting 8 19.4
2020-Sep-30 04:50 295 3 gusting 8 19.5
2020-Sep-30 04:40 294 2 gusting 10 19.5
2020-Sep-30 04:20 302 6 gusting 10 19.4
2020-Sep-30 04:10 297 3 gusting 9 19.4
2020-Sep-30 04:00 319 3 gusting 8 19.4
2020-Sep-30 03:50 311 3 gusting 11 19.4
2020-Sep-30 03:40 293 4 gusting 9 19.4
2020-Sep-30 03:30 299 4 gusting 9 19.4
2020-Sep-30 03:20 286 7 gusting 9 19.7
2020-Sep-30 03:10 282 8 gusting 10 19.8
2020-Sep-30 03:00 332 5 gusting 11 19.9
2020-Sep-30 02:50 322 3 gusting 12 20.1
2020-Sep-30 02:40 300 3 gusting 12 20.2
2020-Sep-30 02:30 306 3 gusting 12 20.2
2020-Sep-30 02:20 271 5 gusting 12 20.2
2020-Sep-30 02:10 275 5 gusting 10 20.2
2020-Sep-30 02:00 298 10 gusting 8 20.4
2020-Sep-30 01:50 292 6 gusting 7 20.6
2020-Sep-30 01:40 286 2 gusting 7 20.4
2020-Sep-30 01:30 288 2 gusting 6 20.2
2020-Sep-30 01:20 261 2 gusting 6 20.0
2020-Sep-30 01:10 292 0 gusting 3 19.9
2020-Sep-30 01:00 20.1
2020-Sep-30 00:50 20.2
2020-Sep-30 00:40 309 0 gusting 3 20.2
2020-Sep-30 00:30 308 1 gusting 3 20.2
2020-Sep-30 00:20 333 0 gusting 2 20.4
2020-Sep-30 00:10 338 0 gusting 3 20.6
2020-Sep-30 00:00 318 0 gusting 3 20.8
2020-Sep-29 23:50 298 2 gusting 8 20.9
2020-Sep-29 23:40 360 1 gusting 5 21.1
2020-Sep-29 23:30 360 1 gusting 6 21.2
2020-Sep-29 23:20 360 3 gusting 8 21.4
2020-Sep-29 23:10 301 3 gusting 11 21.7
2020-Sep-29 23:00 293 4 gusting 13 21.7
2020-Sep-29 22:50 298 6 gusting 10 21.9
2020-Sep-29 22:40 277 6 gusting 12 21.8
2020-Sep-29 22:30 293 7 gusting 12 21.7
2020-Sep-29 22:20 290 7 gusting 10 21.6
2020-Sep-29 22:10 313 7 gusting 7 21.2
2020-Sep-29 22:00 286 6 gusting 10 21.1
2020-Sep-29 21:50 315 5 gusting 11 21.0
2020-Sep-29 21:40 321 4 gusting 11 20.8
2020-Sep-29 21:30 308 6 gusting 13 20.8
2020-Sep-29 21:20 311 6 gusting 13 20.9
2020-Sep-29 21:10 302 1 gusting 13 20.9
2020-Sep-29 21:00 294 11 gusting 12 20.9
2020-Sep-29 20:40 292 3 gusting 13 20.9
2020-Sep-29 20:30 311 5 gusting 13 21.1
2020-Sep-29 20:10 309 6 gusting 13 20.9
2020-Sep-29 20:00 304 4 gusting 14 20.9
2020-Sep-29 19:50 309 4 gusting 12 20.8
2020-Sep-29 19:30 291 6 gusting 15 20.8
2020-Sep-29 19:20 333 10 gusting 15 20.7
2020-Sep-29 19:10 293 11 gusting 16 20.7
2020-Sep-29 19:00 307 6 gusting 15 20.8
2020-Sep-29 18:50 307 8 gusting 15 20.7
2020-Sep-29 18:40 307 8 gusting 14 21.1
2020-Sep-29 18:20 279 7 gusting 14 20.6
2020-Sep-29 18:10 309 6 gusting 13 19.8
2020-Sep-29 18:00 274 3 gusting 13 19.8
2020-Sep-29 17:40 360 4 gusting 13 20.5
2020-Sep-29 17:30 360 6 gusting 13 20.9
2020-Sep-29 17:10 327 5 gusting 15 21.2
2020-Sep-29 17:00 290 7 gusting 14 20.4
2020-Sep-29 16:40 287 8 gusting 13 20.3
2020-Sep-29 16:20 333 5 gusting 15 20.1
2020-Sep-29 16:10 320 5 gusting 15 19.9
2020-Sep-29 16:00 342 11 gusting 14 19.9
2020-Sep-29 15:50 347 5 gusting 13 19.8
2020-Sep-29 15:30 319 11 gusting 19 19.8
2020-Sep-29 15:20 277 12 gusting 18 19.7
2020-Sep-29 15:10 279 17 gusting 24 19.6
2020-Sep-29 15:00 289 11 gusting 22 19.4
2020-Sep-29 14:50 295 12 gusting 19 19.3
2020-Sep-29 14:40 279 13 gusting 15 19.2
2020-Sep-29 14:30 327 3 gusting 15 19.3
2020-Sep-29 14:20 321 9 gusting 19 19.2
2020-Sep-29 14:10 317 7 gusting 18 19.2
2020-Sep-29 14:00 309 14 gusting 17 19.2
2020-Sep-29 13:50 301 3 gusting 17 19.1
2020-Sep-29 13:40 306 8 gusting 17 19.1
2020-Sep-29 13:30 297 6 gusting 19 19.0
2020-Sep-29 13:20 291 8 gusting 19 18.9
2020-Sep-29 13:10 294 6 gusting 17 18.9
2020-Sep-29 13:00 296 7 gusting 16 18.9
2020-Sep-29 12:50 291 7 gusting 20 18.8
2020-Sep-29 12:40 331 10 gusting 17 18.9
2020-Sep-29 12:30 294 8 gusting 19 18.8
2020-Sep-29 12:20 303 4 gusting 13 18.9
2020-Sep-29 12:10 349 8 gusting 13 18.7
2020-Sep-29 12:00 306 10 gusting 14 18.7
2020-Sep-29 11:50 293 3 gusting 13 18.7
2020-Sep-29 11:40 329 5 gusting 14 18.8
2020-Sep-29 11:30 313 7 gusting 13 18.9
2020-Sep-29 11:20 299 7 gusting 14 18.9
2020-Sep-29 11:10 305 9 gusting 14 18.8
2020-Sep-29 11:00 313 4 gusting 11 18.8
2020-Sep-29 10:50 282 9 gusting 15 18.9
2020-Sep-29 10:40 281 7 gusting 13 18.9
2020-Sep-29 10:30 292 8 gusting 13 18.9
2020-Sep-29 10:20 298 6 gusting 13 18.9
2020-Sep-29 10:10 316 11 gusting 12 19.1
2020-Sep-29 10:00 288 7 gusting 14 19.1
2020-Sep-29 09:50 350 6 gusting 13 19.2
2020-Sep-29 09:40 289 6 gusting 13 19.2
2020-Sep-29 09:30 326 3 gusting 14 19.3
2020-Sep-29 09:20 302 9 gusting 14 19.4
2020-Sep-29 09:10 320 4 gusting 13 19.5
2020-Sep-29 09:00 323 6 gusting 12 19.6
2020-Sep-29 08:50 308 9 gusting 13 19.6
2020-Sep-29 08:40 292 6 gusting 13 19.7
2020-Sep-29 08:30 325 7 gusting 13 19.7
2020-Sep-29 08:20 312 6 gusting 16 19.7
2020-Sep-29 08:10 311 6 gusting 13 19.7
2020-Sep-29 07:50 277 5 gusting 13 19.8
2020-Sep-29 07:40 291 10 gusting 13 19.9
2020-Sep-29 07:30 287 9 gusting 14 20.1
2020-Sep-29 07:20 360 5 gusting 14 20.1
2020-Sep-29 07:10 360 6 gusting 15 20.3
2020-Sep-29 07:00 360 9 gusting 12 20.5
2020-Sep-29 06:50 360 6 gusting 12 20.7
2020-Sep-29 06:40 360 4 gusting 13 20.8
2020-Sep-29 06:30 329 4 gusting 11 21.2
2020-Sep-29 06:20 296 7 gusting 12 21.3
2020-Sep-29 06:10 360 6 gusting 13 21.6
2020-Sep-29 06:00 360 7 gusting 12 21.9
2020-Sep-29 05:50 360 5 gusting 13 22.1
2020-Sep-29 05:40 360 11 gusting 18 22.3
2020-Sep-29 05:30 360 11 gusting 16 22.5
2020-Sep-29 05:20 360 7 gusting 15 22.8
2020-Sep-29 05:10 298 6 gusting 13 23.2
2020-Sep-29 05:00 317 13 gusting 14 23.3
2020-Sep-29 04:50 289 4 gusting 12 23.3
2020-Sep-29 04:40 360 5 gusting 13 23.3
2020-Sep-29 04:30 360 6 gusting 12 23.3
2020-Sep-29 04:20 360 5 gusting 11 23.4
2020-Sep-29 04:10 360 3 gusting 10 23.5
2020-Sep-29 03:50 281 6 gusting 10 23.8
2020-Sep-29 03:40 282 3 gusting 9 24.1
2020-Sep-29 03:30 284 8 gusting 10 24.2
2020-Sep-29 03:20 284 6 gusting 9 24.4
2020-Sep-29 03:10 290 6 gusting 12 24.5
2020-Sep-29 03:00 288 7 gusting 9 24.7
2020-Sep-29 02:50 268 3 gusting 6 24.8
2020-Sep-29 02:40 277 2 gusting 4 24.8
2020-Sep-29 02:10 283 2 gusting 5 25.1
2020-Sep-29 02:00 286 2 gusting 7 25.2
2020-Sep-29 01:50 276 2 gusting 8 25.4
2020-Sep-29 01:40 276 3 gusting 6 25.6
2020-Sep-29 01:30 279 0 gusting 12 25.6
2020-Sep-29 01:20 291 4 gusting 8 25.5
2020-Sep-29 01:10 269 1 gusting 9 25.6
2020-Sep-29 01:00 279 6 gusting 10 26.1
2020-Sep-29 00:50 209 1 gusting 9 26.9
2020-Sep-29 00:40 195 6 gusting 11 27.1
2020-Sep-29 00:30 177 4 gusting 11 27.1
2020-Sep-29 00:20 183 5 gusting 9 27.0
2020-Sep-29 00:00 159 5 gusting 7 27.1
2020-Sep-28 23:50 184 1 gusting 7 27.2
2020-Sep-28 23:40 180 4 gusting 9 27.3
2020-Sep-28 23:30 170 4 gusting 9 27.3
2020-Sep-28 23:10 191 6 gusting 11 27.6
2020-Sep-28 22:50 165 4 gusting 14 27.8
2020-Sep-28 22:30 152 8 gusting 13 28.2
2020-Sep-28 22:20 165 10 gusting 13 28.3
2020-Sep-28 22:00 160 7 gusting 13 28.4
2020-Sep-28 21:50 150 5 gusting 12 28.6
2020-Sep-28 21:40 144 7 gusting 13 28.5
2020-Sep-28 21:20 177 8 gusting 14 28.7
2020-Sep-28 17:10 191 3 gusting 10 28.6
2020-Sep-28 17:00 138 6 gusting 8 28.7
2020-Sep-28 16:50 128 6 gusting 10 28.8
2020-Sep-28 16:40 132 9 gusting 10 28.8
2020-Sep-28 16:30 139 9 gusting 9 28.9
2020-Sep-28 16:20 149 3 gusting 9 28.9
2020-Sep-28 16:10 132 6 gusting 8 29.0
2020-Sep-28 16:00 163 5 gusting 9 28.8
2020-Sep-28 15:50 136 9 gusting 10 28.6
2020-Sep-28 15:40 152 3 gusting 8 28.0
2020-Sep-28 15:30 173 6 gusting 4 27.2
2020-Sep-28 15:20 294 0 gusting 2 26.8
2020-Sep-28 15:10 311 1 gusting 4 26.6
2020-Sep-28 15:00 303 2 gusting 6 26.6
2020-Sep-28 14:50 294 3 gusting 6 26.9
2020-Sep-28 12:50 23.5
2020-Sep-28 12:40 23.3
2020-Sep-28 12:30 318 1 gusting 1 23.3
2020-Sep-28 12:20 23.3
2020-Sep-28 12:10 317 1 gusting 3 23.3
2020-Sep-28 12:00 360 1 gusting 2 23.3
2020-Sep-28 11:50 23.2
2020-Sep-28 11:40 360 1 gusting 1 23.1
2020-Sep-28 11:30 23.2
2020-Sep-28 11:20 360 0 gusting 2 23.3
2020-Sep-28 11:10 360 1 gusting 1 23.3
2020-Sep-28 11:00 23.4
2020-Sep-28 10:50 360 1 gusting 2 23.5
2020-Sep-28 10:40 360 0 gusting 2 23.6
2020-Sep-28 10:30 360 1 gusting 2 23.6
2020-Sep-28 10:20 360 0 gusting 1 23.8
2020-Sep-28 10:10 268 0 gusting 2 23.9
2020-Sep-28 09:50 24.4
2020-Sep-28 09:40 268 1 gusting 2 24.8
2020-Sep-28 09:30 142 0 gusting 1 25.3
2020-Sep-28 09:20 25.8
2020-Sep-28 09:10 140 0 gusting 3 25.8
2020-Sep-28 09:00 136 2 gusting 3 25.8
2020-Sep-28 08:50 139 0 gusting 2 25.8
2020-Sep-28 08:40 140 1 gusting 2 25.8
2020-Sep-28 08:30 138 0 gusting 2 25.8
2020-Sep-28 08:20 138 0 gusting 3 25.9
2020-Sep-28 08:10 140 1 gusting 2 25.9
2020-Sep-28 08:00 140 0 gusting 3 25.8
2020-Sep-28 07:50 138 0 gusting 3 25.9
2020-Sep-28 07:40 129 1 gusting 3 25.9
2020-Sep-28 07:30 133 1 gusting 4 25.8
2020-Sep-28 07:20 123 1 gusting 4 25.8
2020-Sep-28 07:10 132 2 gusting 3 25.7
2020-Sep-28 07:00 132 0 gusting 3 25.8
2020-Sep-28 06:50 146 0 gusting 4 25.8
2020-Sep-28 06:40 140 1 gusting 3 25.8
2020-Sep-28 06:30 138 1 gusting 4 25.7
2020-Sep-28 06:20 146 0 gusting 4 25.6
2020-Sep-28 06:10 25.6
2020-Sep-28 06:00 169 0 gusting 1 25.6